Wind_Speed
28 29 30 30 30 32 34 34 36 34 34 33 36 37 38 39 40 41 42 43 45 46 47 49 52 54 56 58 61 63 66 69 71 74 76 78 80 81 82 82 82 82 81 80
29 31 33 32 31 33 34 36 37 38 37 37 38 38 39 40 42 43 44 46 47 48 50 53 55 57 60 62 65 68 70 72 75 77 79 81 82 82 81 81 80 80 79 77
31 32 34 34 32 34 35 37 38 38 39 39 39 39 40 42 43 45 46 48 49 51 53 56 58 61 64 66 69 71 74 76 78 80 81 81 81 80 80 79 78 77 75 73
35 34 36 35 35 35 37 38 39 39 40 40 40 41 43 44 45 47 48 50 52 54 56 59 62 65 67 70 72 75 77 78 80 81 81 81 80 79 78 76 74 72 70 67
38 38 37 35 36 37 39 39 39 40 40 41 41 42 44 46 47 49 51 52 54 57 60 63 65 68 70 73 75 77 79 80 81 81 81 80 78 77 75 73 70 67 64 62
38 40 40 38 37 38 40 40 39 40 41 42 43 44 45 47 48 50 52 55 57 60 63 65 68 71 73 75 77 78 79 80 80 80 79 78 76 73 70 68 65 62 59 57
39 41 42 41 41 40 41 41 41 41 42 42 44 45 47 49 51 53 55 58 60 63 65 68 71 73 75 77 78 79 80 79 79 78 76 75 72 69 66 63 60 58 55 53
40 42 42 42 43 42 43 43 43 43 43 44 45 47 49 51 53 55 58 60 63 65 68 70 73 75 76 78 79 79 78 77 76 74 72 70 67 64 62 60 57 54 51 49
41 42 43 44 44 44 44 44 44 44 45 46 47 49 51 53 55 58 60 63 65 68 70 72 74 76 78 78 78 77 76 74 72 70 67 65 63 60 58 56 54 51 49 46
42 43 44 45 45 45 45 45 45 46 47 48 49 51 53 55 58 60 63 65 67 70 72 73 75 77 78 78 77 75 73 71 69 66 63 61 59 57 55 53 50 48 46 44
43 44 45 46 46 45 45 45 46 47 48 50 52 54 56 58 60 62 65 67 70 72 74 75 76 77 77 77 75 73 70 68 66 63 61 58 56 54 52 49 48 46 44 43
44 44 45 45 45 45 45 46 47 49 50 52 54 56 58 60 62 65 67 69 71 73 75 76 76 76 75 74 72 70 67 65 63 60 58 56 53 50 48 47 46 45 44 43
44 44 45 45 45 46 46 47 48 50 52 54 57 59 60 62 65 67 69 71 73 74 75 76 75 74 73 71 69 67 65 63 61 58 56 53 51 48 44 42 43 43 42 42
44 44 44 45 45 46 47 48 50 52 55 57 58 60 62 64 66 68 70 72 74 74 75 74 73 71 70 68 66 64 62 61 59 56 54 51 48 46 44 42 40 39 40 41
43 43 44 45 46 47 48 50 53 55 57 58 60 62 64 66 68 69 71 73 74 74 73 72 70 68 66 65 63 61 60 58 56 53 51 49 46 44 43 42 40 39 38 39
43 43 44 45 47 48 51 53 55 56 58 59 61 63 66 68 69 70 72 73 73 72 71 70 68 65 64 62 61 59 57 55 53 50 48 46 44 43 42 41 39 38 38 37
43 44 46 47 48 50 52 54 56 58 60 62 63 65 67 69 70 71 71 71 71 70 69 68 65 63 61 60 58 56 54 52 50 48 46 44 43 42 40 39 37 37 36 36
44 45 47 48 50 52 54 56 58 60 62 64 66 67 68 70 71 71 71 70 68 67 65 64 62 60 59 57 56 54 52 49 47 46 44 42 41 40 38 37 36 35 35 35
44 46 48 50 52 54 56 58 60 62 64 66 67 68 69 70 71 71 70 69 67 64 62 60 59 57 56 55 53 51 49 47 45 43 42 40 39 37 37 36 35 35 35 35
47 49 51 53 54 56 58 60 62 64 65 67 68 69 70 71 71 70 68 66 64 62 59 57 56 54 53 52 50 48 47 45 43 41 40 38 37 35 35 34 34 34 34 33
49 51 53 55 57 59 61 62 64 65 66 68 69 70 71 70 69 68 66 62 59 58 57 55 54 52 51 49 47 46 44 43 41 40 38 36 35 34 34 34 33 33 33 33
52 54 55 57 59 60 62 63 65 67 68 69 70 71 70 69 67 64 62 60 57 56 54 53 51 50 48 46 44 43 42 41 39 38 37 35 34 33 33 33 33 32 32 32
54 56 58 59 61 62 63 65 67 68 69 70 70 70 68 66 64 62 58 57 56 54 52 51 49 48 46 44 42 41 41 39 38 36 35 34 33 32 32 32 32 31 31 31
56 58 60 61 63 64 65 66 68 69 70 70 69 68 66 64 61 59 57 55 53 52 50 48 47 46 44 42 41 40 39 38 36 35 34 33 32 32 31 31 31 31 30 29
58 60 62 64 65 66 67 68 69 69 69 68 66 65 63 62 59 56 54 53 51 50 48 46 45 44 43 41 39 38 38 36 35 34 33 32 31 30 30 30 30 30 29 28
61 63 64 65 67 68 69 69 69 68 67 65 62 61 60 58 56 54 52 51 49 47 45 44 43 42 41 40 38 37 36 35 34 33 32 31 30 29 29 29 29 29 28 27
63 64 65 66 67 68 68 68 67 65 63 62 59 57 56 55 53 51 50 48 46 44 43 42 41 40 39 38 37 36 35 33 32 31 30 29 28 28 28 28 28 28 27 26
Wind_Direction
268 270 273 276 280 282 284 286 288 292 292 291 290 292 292 293 294 295 297 298 300 301 302 303 304 304 305 305 306 306 305 305 305 305 305 305 305 304 304 303 302 302 301 299
269 272 275 278 280 282 284 286 289 291 293 292 292 292 292 293 294 295 297 298 300 301 302 303 304 305 305 306 306 306 306 307 307 307 307 306 306 305 305 304 304 303 302 301
271 273 276 279 280 281 283 285 288 291 292 292 292 292 292 293 294 295 297 298 299 301 302 303 304 305 306 307 307 308 308 308 308 308 308 308 308 307 306 306 305 305 304 302
275 276 277 282 282 283 284 285 288 289 290 291 291 291 292 293 294 295 297 298 300 302 303 304 305 306 307 308 308 309 309 310 310 310 309 309 309 308 308 307 307 306 305 304
277 279 280 282 284 285 286 286 288 289 290 291 291 291 292 294 295 296 298 299 301 303 304 305 306 307 308 309 309 310 311 311 311 311 310 310 310 309 309 308 308 308 307 306
278 280 282 284 284 285 286 287 288 289 290 290 291 291 293 294 295 297 298 300 302 304 305 306 307 308 309 310 310 311 312 312 312 312 311 311 311 311 310 310 309 309 309 308
277 280 283 286 287 288 288 289 290 291 291 291 291 292 293 295 296 298 300 302 303 305 307 308 308 309 310 311 312 313 313 313 313 313 312 312 312 312 311 311 311 310 310 309
276 280 283 285 287 288 289 290 291 292 292 292 293 294 295 297 298 300 302 303 305 306 308 309 310 310 311 312 313 314 314 314 314 314 313 313 313 312 312 312 312 312 311 310
277 279 282 284 285 286 288 289 290 292 293 293 294 295 297 298 300 302 303 305 306 308 309 310 311 312 313 313 314 314 315 315 314 314 314 314 313 313 313 313 313 312 312 311
277 279 281 283 284 285 287 289 290 292 293 294 295 297 298 300 302 303 305 306 308 309 310 311 312 313 313 314 314 315 315 315 315 315 315 314 314 314 314 314 313 313 312 312
276 279 280 282 284 286 288 289 290 292 293 295 297 299 300 302 303 305 306 307 308 310 311 312 313 313 314 314 315 315 315 315 316 315 315 315 315 315 314 314 314 313 313 313
276 277 279 281 283 285 287 289 290 292 294 296 298 300 302 303 305 306 307 308 309 310 312 312 313 314 314 314 315 315 315 315 316 316 316 315 315 314 315 315 315 314 314 314
275 277 279 281 283 285 287 289 290 293 295 297 299 301 302 304 306 307 308 309 310 311 312 313 313 314 314 315 315 315 315 315 316 316 316 316 315 315 314 314 314 314 314 314
275 277 279 281 284 286 287 289 292 294 296 298 300 301 303 305 306 307 309 309 311 312 312 313 313 314 314 315 315 315 315 315 316 316 316 316 316 315 315 315 315 314 314 314
274 277 279 282 284 286 288 290 292 294 296 298 300 302 304 305 307 308 309 310 311 312 312 313 313 314 314 314 315 315 315 315 315 315 315 315 315 315 315 316 316 315 315 315
276 278 280 282 284 286 289 291 293 295 297 299 301 302 304 305 307 308 309 310 311 312 312 312 313 313 314 314 315 315 316 316 315 315 315 315 315 315 316 316 316 316 317 317
276 278 281 283 285 288 290 292 294 296 298 300 302 303 304 306 307 308 310 311 311 312 312 312 313 313 314 314 315 316 316 316 315 315 316 316 315 315 316 316 316 317 318 318
278 280 282 285 287 289 291 293 295 297 299 301 302 304 305 306 308 309 310 311 311 311 311 312 313 313 314 314 315 315 316 316 316 316 316 315 315 315 316 317 317 317 318 318
280 282 284 286 288 290 292 294 296 298 300 301 303 304 306 307 308 309 310 311 311 310 311 311 312 313 314 314 314 315 316 316 316 316 316 316 315 316 317 317 317 318 319 319
281 283 285 288 290 292 294 296 297 299 300 302 303 305 306 307 308 309 310 310 310 310 311 311 312 313 313 313 314 314 315 315 315 316 316 315 315 315 316 316 317 318 318 319
283 285 287 289 291 293 295 297 298 300 301 303 304 305 306 307 308 309 309 309 309 309 310 311 312 312 313 313 313 314 314 315 315 316 316 315 315 315 316 316 317 317 318 318
285 287 289 291 292 294 296 297 299 300 302 303 304 305 306 307 308 308 308 309 309 309 310 310 311 311 312 312 313 313 314 315 315 316 316 316 315 315 316 316 317 317 317 317
287 289 290 292 293 295 297 298 300 301 303 304 305 305 306 307 307 307 307 307 308 309 309 310 310 311 311 312 312 313 314 314 314 315 316 315 314 314 315 316 317 317 317 317
289 290 292 294 295 296 298 299 300 302 303 304 305 305 305 306 306 306 307 307 308 309 309 309 309 309 310 311 311 312 313 313 314 314 315 315 314 314 315 316 317 318 317 316
291 292 294 295 296 297 299 300 301 302 303 304 304 304 304 305 305 305 306 306 307 307 307 308 308 308 309 310 311 312 313 313 313 313 314 314 313 314 314 316 318 319 318 317
292 294 295 296 297 298 299 301 302 302 303 303 303 303 303 304 304 304 305 305 305 306 306 306 307 307 308 309 309 310 311 312 312 313 313 313 313 313 314 316 318 319 319 318
293 295 296 297 298 299 300 301 302 302 303 303 303 303 303 303 303 303 303 304 304 305 306 306 306 306 307 307 308 309 310 310 311 312 312 312 312 313 314 316 318 319 319 319
Height
5761 5760 5760 5761 5760 5758 5756 5755 5753 5753 5751 5749 5745 5741 5738 5734 5731 5727 5724 5719 5715 5711 5706 5701 5695 5690 5683 5676 5669 5662 5654 5646 5637 5628 5618 5608 5598 5588 5577 5566 5556 5546 5536 5526
5754 5753 5752 5753 5754 5751 5749 5747 5745 5743 5742 5739 5736 5733 5729 5725 5722 5718 5714 5709 5705 5700 5695 5689 5683 5677 5670 5663 5655 5647 5638 5629 5619 5609 5599 5588 5577 5566 5555 5544 5534 5523 5513 5503
5747 5746 5745 5746 5746 5744 5742 5740 5737 5735 5733 5729 5726 5723 5719 5716 5712 5708 5703 5699 5694 5689 5683 5677 5670 5663 5656 5648 5639 5630 5620 5610 5600 5589 5579 5567 5556 5544 5534 5523 5513 5502 5491 5482
5737 5738 5737 5740 5737 5736 5733 5731 5729 5726 5723 5720 5717 5713 5709 5706 5702 5697 5693 5688 5682 5677 5670 5664 5656 5649 5641 5632 5622 5613 5602 5591 5580 5569 5558 5546 5535 5524 5513 5502 5492 5482 5472 5462
5728 5727 5728 5730 5728 5726 5723 5722 5720 5716 5713 5710 5707 5703 5699 5695 5691 5686 5681 5675 5670 5664 5657 5649 5641 5634 5625 5615 5605 5595 5584 5572 5560 5548 5537 5526 5515 5504 5493 5483 5473 5463 5454 5444
5719 5717 5717 5721 5719 5716 5714 5712 5710 5707 5703 5700 5697 5694 5690 5685 5680 5675 5669 5663 5657 5650 5643 5635 5626 5617 5608 5598 5588 5577 5565 5553 5541 5528 5517 5506 5496 5485 5474 5464 5455 5446 5438 5429
5711 5708 5708 5710 5707 5705 5704 5703 5699 5696 5693 5689 5686 5682 5678 5673 5668 5662 5657 5650 5643 5636 5628 5619 5610 5601 5591 5581 5570 5558 5546 5535 5523 5510 5498 5488 5478 5468 5457 5448 5440 5432 5424 5416
5702 5700 5701 5699 5697 5695 5693 5690 5688 5684 5682 5678 5675 5670 5666 5661 5655 5650 5644 5637 5629 5621 5613 5603 5593 5584 5574 5564 5553 5541 5529 5518 5506 5494 5482 5471 5461 5452 5443 5433 5425 5418 5410 5404
5694 5694 5691 5688 5686 5684 5682 5679 5676 5673 5670 5667 5663 5658 5654 5649 5643 5637 5630 5622 5614 5606 5597 5587 5576 5566 5556 5545 5534 5524 5512 5500 5489 5478 5467 5456 5447 5438 5429 5420 5412 5405 5398 5392
5683 5682 5679 5677 5675 5673 5671 5668 5665 5662 5659 5655 5651 5646 5641 5636 5629 5622 5615 5607 5599 5590 5581 5572 5560 5549 5538 5528 5517 5506 5496 5485 5474 5464 5454 5444 5434 5424 5416 5407 5400 5393 5386 5380
5672 5670 5668 5666 5664 5662 5660 5657 5654 5650 5647 5643 5638 5633 5628 5622 5615 5608 5600 5592 5583 5574 5565 5555 5545 5533 5521 5511 5501 5490 5480 5469 5459 5449 5440 5431 5422 5413 5404 5396 5387 5381 5375 5369
5661 5660 5657 5656 5653 5651 5649 5646 5642 5639 5635 5630 5625 5620 5614 5607 5600 5593 5585 5577 5568 5559 5549 5539 5528 5517 5506 5495 5484 5474 5465 5455 5446 5436 5427 5418 5410 5403 5394 5386 5378 5371 5364 5358
5649 5648 5646 5644 5642 5640 5637 5634 5630 5627 5622 5617 5612 5606 5600 5593 5586 5578 5570 5561 5552 5542 5532 5522 5512 5501 5490 5480 5470 5459 5450 5441 5432 5423 5414 5406 5398 5391 5385 5379 5370 5362 5355 5349
5638 5636 5635 5633 5631 5628 5625 5622 5618 5614 5609 5604 5599 5593 5586 5579 5571 5563 5554 5545 5536 5526 5516 5506 5496 5486 5475 5466 5456 5446 5436 5427 5419 5410 5402 5394 5387 5379 5372 5367 5361 5355 5348 5340
5627 5626 5624 5622 5620 5617 5614 5610 5606 5601 5596 5591 5585 5578 5571 5564 5556 5548 5539 5529 5520 5510 5500 5490 5481 5471 5461 5451 5443 5433 5424 5415 5407 5399 5391 5383 5376 5369 5363 5356 5350 5344 5339 5332
5616 5615 5613 5611 5608 5605 5601 5597 5593 5588 5583 5577 5571 5564 5557 5549 5541 5532 5523 5513 5504 5495 5485 5475 5466 5457 5447 5438 5429 5421 5412 5403 5394 5387 5380 5373 5366 5359 5353 5347 5341 5335 5329 5323
5605 5603 5601 5599 5596 5592 5588 5584 5579 5574 5569 5563 5556 5549 5542 5534 5526 5517 5508 5498 5488 5479 5469 5460 5451 5443 5433 5424 5416 5408 5400 5392 5384 5377 5369 5363 5356 5350 5344 5338 5332 5326 5320 5314
5593 5591 5589 5586 5583 5579 5575 5570 5565 5559 5553 5547 5541 5533 5526 5517 5509 5501 5492 5483 5474 5465 5455 5445 5437 5429 5421 5412 5404 5396 5388 5381 5374 5367 5360 5353 5347 5341 5335 5329 5323 5318 5312 5307
5581 5579 5576 5573 5569 5565 5561 5556 5550 5544 5538 5531 5524 5517 5510 5501 5492 5484 5476 5467 5458 5450 5443 5433 5424 5416 5408 5400 5392 5385 5378 5370 5364 5357 5350 5344 5338 5332 5326 5321 5315 5310 5304 5299
5568 5566 5562 5559 5555 5551 5546 5540 5535 5529 5522 5514 5508 5501 5493 5485 5476 5467 5460 5452 5442 5433 5427 5420 5412 5404 5397 5389 5381 5374 5367 5360 5354 5348 5341 5335 5329 5324 5318 5313 5308 5302 5297 5291
5555 5552 5549 5545 5541 5536 5530 5524 5518 5512 5506 5498 5491 5484 5476 5469 5460 5451 5443 5437 5430 5420 5413 5406 5399 5392 5385 5378 5371 5364 5357 5351 5344 5338 5332 5327 5321 5316 5311 5305 5300 5295 5289 5284
5541 5538 5534 5530 5526 5521 5515 5508 5502 5496 5489 5482 5474 5466 5459 5452 5444 5436 5428 5420 5414 5407 5400 5393 5386 5380 5373 5367 5360 5354 5348 5341 5335 5330 5324 5318 5313 5308 5303 5298 5293 5287 5282 5277
5527 5523 5519 5514 5510 5505 5500 5493 5486 5479 5472 5465 5457 5449 5441 5435 5427 5420 5415 5408 5400 5393 5387 5380 5374 5368 5362 5356 5350 5344 5338 5332 5326 5321 5315 5310 5305 5300 5295 5290 5285 5280 5275 5270
5512 5508 5503 5498 5493 5488 5483 5477 5469 5462 5455 5448 5440 5431 5424 5418 5413 5405 5398 5392 5386 5380 5374 5368 5362 5356 5350 5345 5339 5334 5328 5323 5318 5312 5307 5302 5297 5292 5288 5283 5278 5273 5268 5263
5496 5492 5487 5481 5476 5470 5465 5459 5452 5446 5438 5431 5424 5416 5408 5401 5396 5391 5384 5378 5372 5367 5361 5356 5350 5344 5339 5334 5329 5324 5319 5314 5309 5304 5299 5294 5290 5285 5281 5276 5271 5267 5262 5257
5480 5475 5470 5464 5458 5452 5446 5440 5434 5427 5420 5414 5409 5401 5393 5386 5380 5375 5370 5365 5359 5354 5349 5344 5338 5333 5328 5324 5319 5314 5310 5305 5300 5295 5291 5286 5282 5278 5274 5269 5265 5260 5256 5251
5463 5458 5453 5447 5441 5434 5427 5421 5415 5410 5403 5396 5392 5386 5379 5373 5367 5361 5356 5352 5347 5342 5337 5332 5327 5322 5318 5313 5309 5305 5300 5296 5292 5287 5283 5279 5275 5271 5267 5263 5259 5254 5250 5245